FIN7LP EGLL-EFHK

Flight info

Callsign FIN7LP
Flight time 2h 14m
Altitude 41000
Route BPK Q295 MATCH P144 SAMHO DCT LARGA DCT SOPTO DCT RIRIP Y364 LAKUT
Aircraft A359/H-SDE2E3GHIJ3J4J5LM1ORWXY/LB1D1

Departure

Time 2026-05-04 16:53
Airport London Heathrow Airport (EGLL)

Arrival

Time 2026-05-04 19:08
Airport Helsinki Vantaa Airport (EFHK)
Time Latitude Longitude Altitude Speed Heading
2026-05-04 16:09 51.46839 -0.45831 93 ft 0 kts
2026-05-04 16:37 51.46798 -0.45832 93 ft 0 kts
2026-05-04 16:38 51.46746 -0.45955 93 ft 0 kts 88°
2026-05-04 16:43 51.46747 -0.45927 93 ft 7 kts 88°
2026-05-04 16:43 51.46749 -0.45811 93 ft 12 kts 89°
2026-05-04 16:44 51.46750 -0.45243 93 ft 11 kts 89°
2026-05-04 16:45 51.46751 -0.44944 93 ft 16 kts 90°
2026-05-04 16:46 51.46752 -0.44300 93 ft 22 kts 89°
2026-05-04 16:46 51.46770 -0.43839 96 ft 19 kts 91°
2026-05-04 16:47 51.46813 -0.43609 94 ft 11 kts 17°
2026-05-04 16:47 51.46964 -0.43612 93 ft 10 kts 359°
2026-05-04 16:48 51.47200 -0.43593 96 ft 13 kts 360°
2026-05-04 16:48 51.47283 -0.43574 96 ft 13 kts 25°
2026-05-04 16:49 51.47418 -0.43396 97 ft 8 kts 41°
2026-05-04 16:49 51.47455 -0.43342 96 ft 8 kts 41°
2026-05-04 16:50 51.47588 -0.43257 97 ft 12 kts
2026-05-04 16:50 51.47743 -0.43395 96 ft 15 kts 318°
2026-05-04 16:51 51.47765 -0.43515 96 ft 0 kts 270°
2026-05-04 16:52 51.47765 -0.43528 93 ft 10 kts 270°
2026-05-04 16:53 51.47760 -0.45269 96 ft 146 kts 268°
2026-05-04 16:53 51.47828 -0.50610 2315 ft 167 kts 272°
2026-05-04 16:54 51.47871 -0.52583 2758 ft 192 kts 271°
2026-05-04 16:55 51.50748 -0.61807 4937 ft 266 kts 316°
2026-05-04 16:55 51.54049 -0.64129 5479 ft 269 kts 356°
2026-05-04 16:56 51.57538 -0.62155 5955 ft 276 kts 43°
2026-05-04 16:56 51.61039 -0.54745 6020 ft 279 kts 53°
2026-05-04 16:57 51.62151 -0.52236 6019 ft 279 kts 57°
2026-05-04 16:57 51.63948 -0.46709 6019 ft 279 kts 64°
2026-05-04 16:58 51.66523 -0.38272 6050 ft 279 kts 64°
2026-05-04 16:58 51.67386 -0.35463 6047 ft 280 kts 63°
2026-05-04 16:59 51.69115 -0.29837 6488 ft 282 kts 63°
2026-05-04 17:00 51.72649 -0.18312 9465 ft 293 kts 64°
2026-05-04 17:00 51.75221 -0.08961 10758 ft 328 kts 76°
2026-05-04 17:01 51.76016 -0.01399 11418 ft 353 kts 85°
2026-05-04 17:01 51.76519 0.06545 12467 ft 362 kts 86°
2026-05-04 17:02 51.77093 0.14716 13582 ft 370 kts 85°
2026-05-04 17:02 51.77859 0.23013 14531 ft 379 kts 73°
2026-05-04 17:03 51.79091 0.26787 15054 ft 383 kts 53°
2026-05-04 17:03 51.80832 0.30075 15574 ft 387 kts 46°
2026-05-04 17:03 51.84744 0.36125 16603 ft 392 kts 42°
2026-05-04 17:04 51.88800 0.42142 17597 ft 398 kts 43°
2026-05-04 17:04 51.92846 0.48357 18575 ft 404 kts 44°
2026-05-04 17:05 51.96916 0.54764 19408 ft 411 kts 44°
2026-05-04 17:05 52.01035 0.61286 20241 ft 417 kts 44°
2026-05-04 17:06 52.05613 0.67188 21059 ft 423 kts 36°
2026-05-04 17:06 52.08013 0.69988 21469 ft 426 kts 35°
2026-05-04 17:07 52.12906 0.75544 22261 ft 432 kts 34°
2026-05-04 17:07 52.14546 0.77399 22532 ft 434 kts 34°
2026-05-04 17:07 52.17845 0.81149 23079 ft 437 kts 34°
2026-05-04 17:07 52.20343 0.84006 23481 ft 440 kts 35°
2026-05-04 17:08 52.22852 0.86887 23827 ft 443 kts 35°
2026-05-04 17:08 52.27913 0.92725 24497 ft 447 kts 35°
2026-05-04 17:08 52.30460 0.95672 24835 ft 450 kts 35°
2026-05-04 17:09 52.33017 0.98633 25186 ft 452 kts 35°
2026-05-04 17:09 52.35589 1.01614 25537 ft 454 kts 35°
2026-05-04 17:09 52.38175 1.04615 25897 ft 457 kts 35°
2026-05-04 17:10 52.43390 1.10685 26641 ft 462 kts 35°
2026-05-04 17:10 52.51279 1.19903 27856 ft 470 kts 36°
2026-05-04 17:11 52.53959 1.23042 28276 ft 473 kts 36°
2026-05-04 17:11 52.56649 1.26199 28689 ft 477 kts 36°
2026-05-04 17:11 52.62077 1.32582 29534 ft 483 kts 36°
2026-05-04 17:12 52.64821 1.35817 29940 ft 487 kts 36°
2026-05-04 17:12 52.70358 1.42361 30704 ft 492 kts 36°
2026-05-04 17:13 52.78760 1.52330 31861 ft 499 kts 36°
2026-05-04 17:14 52.87262 1.62466 32904 ft 505 kts 36°
2026-05-04 17:14 52.90077 1.65833 33221 ft 507 kts 36°
2026-05-04 17:14 52.95824 1.72724 33867 ft 511 kts 36°
2026-05-04 17:15 52.97773 1.75066 34070 ft 513 kts 36°
2026-05-04 17:15 53.04507 1.83180 34746 ft 514 kts 36°
2026-05-04 17:16 53.09355 1.89041 35345 ft 513 kts 36°
2026-05-04 17:16 53.18006 1.99542 36342 ft 513 kts 36°
2026-05-04 17:17 53.20886 2.03050 36675 ft 513 kts 36°
2026-05-04 17:17 53.29515 2.13461 37683 ft 512 kts 34°
2026-05-04 17:18 53.32557 2.16521 37983 ft 511 kts 25°
2026-05-04 17:18 53.39308 2.20087 38619 ft 508 kts 12°
2026-05-04 17:19 53.46199 2.22747 39131 ft 508 kts 11°
2026-05-04 17:19 53.53085 2.25385 39602 ft 506 kts 11°
2026-05-04 17:20 53.59947 2.28026 40063 ft 505 kts 11°
2026-05-04 17:20 53.66799 2.30678 40468 ft 505 kts 11°
2026-05-04 17:20 53.70223 2.32010 40669 ft 505 kts 11°
2026-05-04 17:21 53.76933 2.35347 41043 ft 502 kts 22°
2026-05-04 17:21 53.82819 2.41612 41047 ft 501 kts 39°
2026-05-04 17:22 53.87982 2.49564 41048 ft 502 kts 44°
2026-05-04 17:23 53.97938 2.66156 41043 ft 503 kts 43°
2026-05-04 17:24 54.05485 2.78558 41044 ft 503 kts 43°
2026-05-04 17:25 54.15558 2.95142 41049 ft 503 kts 43°
2026-05-04 17:26 54.25563 3.11745 41041 ft 503 kts 43°
2026-05-04 17:27 54.38085 3.32696 41042 ft 503 kts 43°
2026-05-04 17:28 54.48081 3.49556 41043 ft 503 kts 43°
2026-05-04 17:29 54.63033 3.75004 41044 ft 504 kts 44°
2026-05-04 17:31 54.75464 3.96377 41044 ft 504 kts 44°
2026-05-04 17:32 54.87821 4.17834 41041 ft 505 kts 45°
2026-05-04 17:33 54.97317 4.35888 41047 ft 505 kts 47°
2026-05-04 17:34 55.06776 4.54029 41046 ft 506 kts 46°
2026-05-04 17:35 55.18617 4.76780 41045 ft 506 kts 46°
2026-05-04 17:36 55.23339 4.85919 41038 ft 506 kts 46°
2026-05-04 17:36 55.28032 4.95037 41036 ft 507 kts 46°
2026-05-04 17:37 55.32480 5.04647 41033 ft 508 kts 52°
2026-05-04 17:37 55.36650 5.14666 41033 ft 508 kts 53°
2026-05-04 17:38 55.40779 5.24772 41031 ft 508 kts 53°
2026-05-04 17:38 55.44878 5.34845 41029 ft 509 kts 53°
2026-05-04 17:39 55.51080 5.50125 41027 ft 509 kts 53°
2026-05-04 17:39 55.55166 5.60236 41024 ft 509 kts 53°
2026-05-04 17:40 55.59271 5.70438 41025 ft 509 kts 53°
2026-05-04 17:40 55.63373 5.80674 41024 ft 510 kts 53°
2026-05-04 17:41 55.67459 5.90913 41024 ft 510 kts 53°
2026-05-04 17:41 55.71545 6.01196 41021 ft 510 kts 53°
2026-05-04 17:42 55.75631 6.11523 41019 ft 510 kts 53°
2026-05-04 17:42 55.79700 6.21848 41018 ft 510 kts 53°
2026-05-04 17:43 55.83762 6.32200 41018 ft 511 kts 53°
2026-05-04 17:43 55.87821 6.42588 41017 ft 511 kts 53°
2026-05-04 17:44 55.91850 6.52944 41011 ft 511 kts 54°
2026-05-04 17:44 55.95896 6.63388 41011 ft 511 kts 54°
2026-05-04 17:45 55.99929 6.73842 41008 ft 511 kts 54°
2026-05-04 17:45 56.03956 6.84327 41008 ft 511 kts 54°
2026-05-04 17:46 56.07981 6.94850 41005 ft 512 kts 54°
2026-05-04 17:46 56.11993 7.05386 41004 ft 512 kts 54°
2026-05-04 17:47 56.16001 7.15955 41000 ft 512 kts 54°
2026-05-04 17:47 56.19999 7.26544 40999 ft 512 kts 54°
2026-05-04 17:48 56.23963 7.37090 40997 ft 513 kts 54°
2026-05-04 17:48 56.27950 7.47743 40995 ft 513 kts 54°
2026-05-04 17:49 56.31926 7.58414 40994 ft 513 kts 54°
2026-05-04 17:49 56.35891 7.69101 40992 ft 513 kts 54°
2026-05-04 17:50 56.39856 7.79834 40992 ft 514 kts 54°
2026-05-04 17:50 56.43810 7.90588 40975 ft 514 kts 54°
2026-05-04 17:51 56.47755 8.01365 40976 ft 514 kts 54°
2026-05-04 17:51 56.51704 8.12199 40977 ft 515 kts 54°
2026-05-04 17:52 56.55637 8.23038 40994 ft 515 kts 54°
2026-05-04 17:52 56.59564 8.33909 40986 ft 515 kts 55°
2026-05-04 17:53 56.63474 8.44783 40982 ft 516 kts 55°
2026-05-04 17:53 56.67395 8.55735 40977 ft 516 kts 55°
2026-05-04 17:54 56.71305 8.66708 40969 ft 516 kts 55°
2026-05-04 17:54 56.75183 8.77638 40972 ft 517 kts 55°
2026-05-04 17:55 56.79077 8.88665 40966 ft 517 kts 55°
2026-05-04 17:55 56.82966 8.99728 40964 ft 517 kts 55°
2026-05-04 17:56 56.86840 9.10801 40956 ft 518 kts 55°
2026-05-04 17:56 56.90710 9.21911 40959 ft 518 kts 55°
2026-05-04 17:57 56.94550 9.32988 40957 ft 518 kts 56°
2026-05-04 17:57 56.98405 9.44158 40950 ft 519 kts 56°
2026-05-04 17:58 57.02255 9.55366 40938 ft 519 kts 56°
2026-05-04 17:58 57.06103 9.66622 40937 ft 520 kts 56°
2026-05-04 17:59 57.09935 9.77883 40939 ft 520 kts 56°
2026-05-04 18:00 57.15670 9.94836 40940 ft 521 kts 56°
2026-05-04 18:00 57.19489 10.06192 40939 ft 521 kts 56°
2026-05-04 18:01 57.23300 10.17577 40932 ft 521 kts 56°
2026-05-04 18:01 57.27102 10.28991 40927 ft 522 kts 56°
2026-05-04 18:02 57.32764 10.46091 40914 ft 522 kts 56°
2026-05-04 18:02 57.36547 10.57583 40913 ft 523 kts 56°
2026-05-04 18:03 57.40320 10.69103 40909 ft 523 kts 57°
2026-05-04 18:03 57.44086 10.80659 40902 ft 523 kts 57°
2026-05-04 18:04 57.47205 10.90268 40904 ft 523 kts 57°
2026-05-04 18:05 57.52825 11.07687 40895 ft 524 kts 57°
2026-05-04 18:05 57.56566 11.19351 40888 ft 524 kts 57°
2026-05-04 18:06 57.62151 11.36875 40868 ft 524 kts 57°
2026-05-04 18:06 57.65861 11.48587 40885 ft 524 kts 57°
2026-05-04 18:07 57.69566 11.60343 40892 ft 524 kts 57°
2026-05-04 18:07 57.73259 11.72117 40897 ft 525 kts 57°
2026-05-04 18:08 57.76909 11.83814 40881 ft 525 kts 57°
2026-05-04 18:08 57.80582 11.95644 40882 ft 525 kts 58°
2026-05-04 18:09 57.87907 12.19415 40877 ft 526 kts 58°
2026-05-04 18:10 57.91555 12.31344 40855 ft 526 kts 58°
2026-05-04 18:10 57.95196 12.43313 40856 ft 527 kts 58°
2026-05-04 18:11 57.98827 12.55306 40849 ft 527 kts 58°
2026-05-04 18:11 58.02452 12.67346 40841 ft 527 kts 58°
2026-05-04 18:12 58.06071 12.79425 40838 ft 528 kts 58°
2026-05-04 18:12 58.09673 12.91511 40834 ft 528 kts 58°
2026-05-04 18:13 58.13241 13.03545 40827 ft 528 kts 58°
2026-05-04 18:14 58.18542 13.21540 40823 ft 529 kts 59°
2026-05-04 18:14 58.21729 13.32426 40820 ft 529 kts 59°
2026-05-04 18:15 58.28841 13.56904 40811 ft 529 kts 59°
2026-05-04 18:16 58.32380 13.69184 40804 ft 530 kts 59°
2026-05-04 18:16 58.35911 13.81502 40802 ft 530 kts 59°
2026-05-04 18:17 58.41162 13.99939 40789 ft 530 kts 59°
2026-05-04 18:18 58.46417 14.18541 40781 ft 531 kts 59°
2026-05-04 18:18 58.49907 14.30982 40774 ft 531 kts 60°
2026-05-04 18:19 58.55118 14.49679 40774 ft 531 kts 60°
2026-05-04 18:19 58.58580 14.62186 40775 ft 532 kts 60°
2026-05-04 18:20 58.62041 14.74760 40776 ft 532 kts 60°
2026-05-04 18:20 58.65486 14.87347 40774 ft 532 kts 60°
2026-05-04 18:21 58.68896 14.99871 40775 ft 532 kts 60°
2026-05-04 18:21 58.72319 15.12515 40763 ft 533 kts 60°
2026-05-04 18:22 58.75735 15.25203 40764 ft 533 kts 60°
2026-05-04 18:22 58.79139 15.37921 40754 ft 534 kts 61°
2026-05-04 18:23 58.82530 15.50661 40757 ft 534 kts 61°
2026-05-04 18:23 58.85910 15.63428 40751 ft 534 kts 61°
2026-05-04 18:24 58.89280 15.76233 40748 ft 534 kts 61°
2026-05-04 18:24 58.92635 15.89055 40745 ft 534 kts 61°
2026-05-04 18:25 58.95956 16.01819 40740 ft 534 kts 62°
2026-05-04 18:25 58.99288 16.14697 40738 ft 535 kts 62°
2026-05-04 18:26 59.02630 16.27691 40738 ft 535 kts 62°
2026-05-04 18:26 59.05917 16.40542 40732 ft 535 kts 62°
2026-05-04 18:27 59.09215 16.53513 40726 ft 535 kts 62°
2026-05-04 18:27 59.12500 16.66513 40726 ft 535 kts 62°
2026-05-04 18:28 59.15775 16.79546 40722 ft 535 kts 62°
2026-05-04 18:28 59.19037 16.92606 40722 ft 535 kts 62°
2026-05-04 18:29 59.22287 17.05695 40720 ft 536 kts 62°
2026-05-04 18:29 59.25522 17.18800 40719 ft 536 kts 63°
2026-05-04 18:30 59.30334 17.38439 40716 ft 536 kts 63°
2026-05-04 18:31 59.33541 17.51628 40717 ft 536 kts 63°
2026-05-04 18:31 59.36734 17.64838 40716 ft 536 kts 63°
2026-05-04 18:32 59.39914 17.78077 40720 ft 536 kts 63°
2026-05-04 18:32 59.43083 17.91349 40721 ft 537 kts 63°
2026-05-04 18:33 59.46239 18.04647 40719 ft 537 kts 63°
2026-05-04 18:33 59.49381 18.17968 40717 ft 537 kts 64°
2026-05-04 18:34 59.52511 18.31321 40685 ft 537 kts 64°
2026-05-04 18:34 59.55628 18.44700 40684 ft 537 kts 64°
2026-05-04 18:35 59.58728 18.58090 40684 ft 537 kts 64°
2026-05-04 18:35 59.61821 18.71535 40696 ft 537 kts 64°
2026-05-04 18:36 59.64875 18.84897 40681 ft 537 kts 64°
2026-05-04 18:36 59.67944 18.98407 40681 ft 537 kts 64°
2026-05-04 18:37 59.70996 19.11925 40680 ft 538 kts 65°
2026-05-04 18:37 59.74032 19.25461 40677 ft 538 kts 65°
2026-05-04 18:38 59.77056 19.39029 40678 ft 538 kts 65°
2026-05-04 18:38 59.80067 19.52629 40676 ft 538 kts 65°
2026-05-04 18:39 59.83066 19.66261 40679 ft 538 kts 65°
2026-05-04 18:39 59.86031 19.79827 40680 ft 538 kts 65°
2026-05-04 18:40 59.89005 19.93522 40682 ft 539 kts 65°
2026-05-04 18:40 59.91962 20.07226 40683 ft 539 kts 66°
2026-05-04 18:41 59.94912 20.20992 40684 ft 539 kts 66°
2026-05-04 18:41 59.97844 20.34767 40681 ft 539 kts 66°
2026-05-04 18:42 60.00765 20.48579 40682 ft 539 kts 66°
2026-05-04 18:42 60.02219 20.55489 40518 ft 539 kts 66°
2026-05-04 18:42 60.03651 20.62318 40287 ft 539 kts 66°
2026-05-04 18:42 60.05115 20.69323 40053 ft 539 kts 66°
2026-05-04 18:43 60.06561 20.76268 39822 ft 540 kts 66°
2026-05-04 18:43 60.07979 20.83098 39423 ft 538 kts 66°
2026-05-04 18:43 60.09426 20.90093 38813 ft 538 kts 66°
2026-05-04 18:43 60.10843 20.96966 38128 ft 540 kts 66°
2026-05-04 18:44 60.12277 21.03949 37388 ft 541 kts 66°
2026-05-04 18:44 60.12758 21.06296 37144 ft 540 kts 66°
2026-05-04 18:44 60.15126 21.17900 35995 ft 540 kts 66°
2026-05-04 18:44 60.16551 21.24911 35283 ft 541 kts 66°
2026-05-04 18:45 60.17969 21.31907 34535 ft 543 kts 65°
2026-05-04 18:45 60.19393 21.38973 33785 ft 546 kts 65°
2026-05-04 18:45 60.20520 21.46299 33406 ft 550 kts 74°
2026-05-04 18:45 60.21421 21.53795 32577 ft 551 kts 76°
2026-05-04 18:46 60.22241 21.61280 31995 ft 547 kts 77°
2026-05-04 18:46 60.23018 21.68752 31401 ft 542 kts 77°
2026-05-04 18:46 60.23772 21.76166 30792 ft 539 kts 77°
2026-05-04 18:46 60.24516 21.83540 30203 ft 536 kts 77°
2026-05-04 18:47 60.25247 21.90777 29572 ft 533 kts 77°
2026-05-04 18:47 60.25986 21.98075 28926 ft 529 kts 77°
2026-05-04 18:47 60.26717 22.05298 28337 ft 523 kts 78°
2026-05-04 18:47 60.27439 22.12445 27755 ft 518 kts 78°
2026-05-04 18:48 60.28152 22.19542 27177 ft 514 kts 78°
2026-05-04 18:48 60.28855 22.26568 26602 ft 510 kts 78°
2026-05-04 18:48 60.29549 22.33550 26020 ft 505 kts 78°
2026-05-04 18:48 60.30232 22.40464 25457 ft 501 kts 79°
2026-05-04 18:49 60.30905 22.47320 24890 ft 497 kts 79°
2026-05-04 18:49 60.31573 22.54160 24318 ft 494 kts 79°
2026-05-04 18:49 60.32230 22.60927 23748 ft 490 kts 79°
2026-05-04 18:49 60.32881 22.67660 23167 ft 487 kts 79°
2026-05-04 18:50 60.33522 22.74346 22565 ft 481 kts 80°
2026-05-04 18:50 60.34147 22.80947 21992 ft 476 kts 80°
2026-05-04 18:50 60.34555 22.85276 21620 ft 472 kts 80°
2026-05-04 18:50 60.35164 22.91754 21049 ft 467 kts 80°
2026-05-04 18:51 60.35765 22.98175 20479 ft 462 kts 80°
2026-05-04 18:51 60.36356 23.04520 19915 ft 458 kts 80°
2026-05-04 18:51 60.36940 23.10814 19356 ft 454 kts 80°
2026-05-04 18:51 60.37516 23.17060 18787 ft 450 kts 80°
2026-05-04 18:52 60.38084 23.23247 18216 ft 446 kts 81°
2026-05-04 18:52 60.38645 23.29398 17646 ft 443 kts 81°
2026-05-04 18:52 60.39186 23.35466 17265 ft 435 kts 81°
2026-05-04 18:52 60.39705 23.41487 16803 ft 434 kts 81°
2026-05-04 18:53 60.40219 23.47499 16160 ft 433 kts 81°
2026-05-04 18:53 60.40730 23.53483 15518 ft 431 kts 81°
2026-05-04 18:53 60.41235 23.59427 14885 ft 428 kts 81°
2026-05-04 18:53 60.41729 23.65284 14273 ft 425 kts 82°
2026-05-04 18:54 60.42224 23.71165 13672 ft 422 kts 82°
2026-05-04 18:54 60.42711 23.76996 13046 ft 418 kts 82°
2026-05-04 18:54 60.43189 23.82762 12497 ft 411 kts 81°
2026-05-04 18:54 60.43656 23.88412 11962 ft 404 kts 81°
2026-05-04 18:55 60.44114 23.93985 11460 ft 398 kts 81°
2026-05-04 18:55 60.45001 24.04876 10429 ft 380 kts 81°
2026-05-04 18:55 60.45415 24.09978 9921 ft 355 kts 80°
2026-05-04 18:56 60.45797 24.14733 9624 ft 330 kts 80°
2026-05-04 18:56 60.46161 24.19254 9402 ft 322 kts 80°
2026-05-04 18:56 60.46522 24.23761 9020 ft 325 kts 80°
2026-05-04 18:56 60.46881 24.28255 8624 ft 321 kts 80°
2026-05-04 18:57 60.47234 24.32709 8233 ft 318 kts 80°
2026-05-04 18:57 60.47574 24.37013 7841 ft 314 kts 80°
2026-05-04 18:57 60.47915 24.41353 7451 ft 309 kts 80°
2026-05-04 18:57 60.48246 24.45585 7081 ft 307 kts 80°
2026-05-04 18:58 60.48576 24.49835 6686 ft 304 kts 80°
2026-05-04 18:58 60.48903 24.54061 6308 ft 302 kts 80°
2026-05-04 18:58 60.49223 24.58214 5926 ft 294 kts 80°
2026-05-04 18:58 60.49534 24.62254 5532 ft 286 kts 80°
2026-05-04 18:59 60.49836 24.66196 5141 ft 280 kts 80°
2026-05-04 18:59 60.50132 24.70065 4741 ft 274 kts 80°
2026-05-04 18:59 60.50420 24.73850 4365 ft 269 kts 80°
2026-05-04 18:59 60.50701 24.77568 3959 ft 265 kts 80°
2026-05-04 19:00 60.50978 24.81245 3576 ft 261 kts 80°
2026-05-04 19:00 60.51251 24.84864 3201 ft 258 kts 80°
2026-05-04 19:00 60.51516 24.88413 3013 ft 253 kts 80°
2026-05-04 19:00 60.51780 24.91950 2996 ft 253 kts 80°
2026-05-04 19:01 60.52043 24.95482 2997 ft 253 kts 80°
2026-05-04 19:01 60.52304 24.98999 2997 ft 252 kts 81°
2026-05-04 19:01 60.52563 25.02522 3000 ft 252 kts 81°
2026-05-04 19:01 60.52821 25.06048 2996 ft 252 kts 80°
2026-05-04 19:02 60.53051 25.09573 2975 ft 252 kts 85°
2026-05-04 19:02 60.52861 25.13051 2749 ft 251 kts 111°
2026-05-04 19:02 60.51862 25.15853 2479 ft 241 kts 149°
2026-05-04 19:02 60.50372 25.17059 2229 ft 231 kts 173°
2026-05-04 19:03 60.48808 25.17643 2027 ft 225 kts 176°
2026-05-04 19:03 60.47308 25.18149 1988 ft 211 kts 176°
2026-05-04 19:03 60.45915 25.18503 2017 ft 191 kts 182°
2026-05-04 19:03 60.44623 25.18436 2005 ft 183 kts 192°
2026-05-04 19:04 60.43395 25.17919 1999 ft 179 kts 203°
2026-05-04 19:04 60.42255 25.16987 2001 ft 176 kts 212°
2026-05-04 19:04 60.41245 25.15703 2003 ft 166 kts 223°
2026-05-04 19:04 60.40441 25.14128 1994 ft 155 kts 232°
2026-05-04 19:05 60.39717 25.12564 2000 ft 150 kts 231°
2026-05-04 19:05 60.39014 25.11024 1945 ft 148 kts 232°
2026-05-04 19:05 60.38318 25.09489 1767 ft 148 kts 232°
2026-05-04 19:05 60.37640 25.08000 1550 ft 138 kts 232°
2026-05-04 19:06 60.37021 25.06635 1362 ft 126 kts 233°
2026-05-04 19:06 60.36451 25.05372 1188 ft 119 kts 232°
2026-05-04 19:06 60.35882 25.04053 1074 ft 137 kts 233°
2026-05-04 19:06 60.35237 25.02617 893 ft 138 kts 227°
2026-05-04 19:07 60.34580 25.01219 665 ft 139 kts 227°
2026-05-04 19:07 60.33915 24.99765 433 ft 140 kts 227°
2026-05-04 19:07 60.33268 24.98365 282 ft 132 kts 228°
2026-05-04 19:07 60.32677 24.97041 172 ft 121 kts 228°
2026-05-04 19:08 60.32183 24.95953 170 ft 89 kts 227°
2026-05-04 19:08 60.31816 24.95147 169 ft 69 kts 228°
2026-05-04 19:08 60.31560 24.94600 167 ft 22 kts 210°
2026-05-04 19:08 60.31461 24.94622 168 ft 13 kts 151°
2026-05-04 19:09 60.31436 24.94661 168 ft 0 kts 138°
2026-05-04 19:09 60.31435 24.94662 168 ft 0 kts 138°
2026-05-04 19:09 60.31431 24.94669 168 ft 1 kts 138°
2026-05-04 19:09 60.31430 24.94671 168 ft 0 kts 138°
2026-05-04 19:10 60.31430 24.94672 168 ft 0 kts 138°
2026-05-04 19:11 60.31427 24.94678 168 ft 1 kts 137°
2026-05-04 19:11 60.31421 24.94689 168 ft 2 kts 134°
2026-05-04 19:11 60.31416 24.94812 168 ft 10 kts 68°
2026-05-04 19:11 60.31447 24.94909 168 ft 0 kts 53°
2026-05-04 19:12 60.31451 24.94916 168 ft 4 kts 47°
2026-05-04 19:12 60.31453 24.94934 168 ft 1 kts 78°
2026-05-04 19:13 60.31450 24.94959 168 ft 4 kts 107°
2026-05-04 19:13 60.31415 24.95041 168 ft 13 kts 133°
2026-05-04 19:13 60.31350 24.95172 168 ft 13 kts 135°
2026-05-04 19:13 60.31282 24.95301 168 ft 13 kts 137°
2026-05-04 19:14 60.31212 24.95426 168 ft 13 kts 137°
2026-05-04 19:14 60.31169 24.95580 168 ft 13 kts 85°
2026-05-04 19:14 60.31226 24.95739 168 ft 15 kts 54°
2026-05-04 19:14 60.31228 24.95948 168 ft 15 kts 76°
2026-05-04 19:15 60.31281 24.96093 168 ft 12 kts 47°
2026-05-04 19:15 60.31342 24.96156 168 ft 8 kts 15°
2026-05-04 19:15 60.31372 24.96196 168 ft 4 kts 44°
2026-05-04 19:15 60.31391 24.96236 168 ft 2 kts 47°
2026-05-04 19:16 60.31396 24.96247 168 ft 4 kts 48°
2026-05-04 19:16 60.31399 24.96255 168 ft 0 kts 48°